Regional Weather Roundup
Issued by NWS

Home | Current Version | Previous Version | Text Only | Print | Product List | Glossary On
Versions: 1 2 3 4 5 6 7 8 9 10 11 12 13 14 15 16 17 18 19 20 21 22 23 24 25 26 27 28 29 30 31 32 33 34 35 36 37 38 39 40 41 42 43 44 45 46 47 48 49 50
487
ASUS43 KMKX 240500
RWRWI

WISCONSIN REGIONAL WEATHER ROUNDUP
NATIONAL WEATHER SERVICE MILWAUKEE/SULLIVAN WI
1200 AM CDT MON JUL 24 2017

NOTE: "FAIR" INDICATES FEW OR NO CLOUDS BELOW 12,000 FEET WITH NO
SIGNIFICANT WEATHER AND/OR OBSTRUCTIONS TO VISIBILITY.

WIZ001-002-006>008-014>016-023>028-240600-
NORTHWEST WISCONSIN

CITY           SKY/WX    TMP DP  RH WIND       PRES   REMARKS
SUPERIOR ARPT  NOT AVBL
ASHLAND        FOG       49  48  97 CALM      30.05S VSB 1/4
HAYWARD        CLEAR     58  55  90 N3        30.05R
SIREN          MOCLDY    59  56  89 E3        30.05R
CUMBERLAND     MOCLDY    59  54  82 N5        30.04R
RICE LAKE      CLEAR     57  54  89 N5        30.04S
CHETEK         CLEAR     61  56  84 N8        30.03R
LADYSMITH      CLOUDY    60  57  91 N8        30.05R
EAU CLAIRE     NOT AVBL
MENOMONIE      CLEAR     62  57  83 N7        30.01S
NEW RICHMOND   CLEAR     59  56  89 E3        30.03S
OSCEOLA        CLEAR     59  59 100 CALM      30.06R
$$

WIZ003>005-009-010-017-018-240600-
NORTH CENTRAL WISCONSIN

CITY           SKY/WX    TMP DP  RH WIND       PRES   REMARKS
MANITOWISH WTR CLEAR     53  53 100 NE3       30.04R
ARBOR VITAE    CLEAR     57  56  95 CALM      30.02S
WOODRUFF       CLEAR     57  56  95 CALM      30.02S
RHINELANDER    PTCLDY    54  54 100 NE3       30.03R
EAGLE RIVER    CLEAR     52  52 100 NE3       30.03R
LAND O LAKES   FOG       50  50 100 CALM      30.05S VSB 3/4
PHILLIPS       CLEAR     53  53 100 CALM      30.03R
TOMAHAWK         N/A     54  51  92 CALM      30.03R
MEDFORD        CLEAR     57  53  86 NE5       30.01S
MERRILL        NOT AVBL
$$

WIZ029-030-035-036-043>047-240600-
CENTRAL WISCONSIN

CITY           SKY/WX    TMP DP  RH WIND       PRES   REMARKS
WAUSAU         CLEAR     59  54  83 N3        29.99R
MOSINEE        CLEAR     59  55  88 N7        30.01R
MARSHFIELD     CLEAR     61  53  75 NE8       30.00R
STEVENS POINT  CLEAR     58  53  84 N8        30.00R
WAUPACA        CLEAR     63  55  76 N6        29.98R
WAUTOMA        CLEAR     62  55  77 NE8       29.98R
WISC RAPIDS    CLEAR     63  55  75 NE6       30.00R
CAMP DOUGLAS   NOT AVBL
$$

WIZ011>013-019>022-031-037>040-048>050-240600-
NORTHEAST WISCONSIN

CITY           SKY/WX    TMP DP  RH WIND       PRES   REMARKS
ANTIGO         CLEAR     54  53  94 N5        30.01R
SHAWANO        CLOUDY    64  56  77 N14G23    29.98R
OCONTO         CLOUDY    62  55  79 N10       29.96R
STURGEON BAY     N/A     62  57  83 NE10        N/A
GREEN BAY      CLOUDY    63  58  83 N13       29.96R
MANITOWOC      CLOUDY    63  57  82 N9        29.94R
APPLETON       CLOUDY    61  52  72 N13       29.95R
CLINTONVILLE   CLOUDY    61  54  77 N9        29.98R
OSHKOSH        CLOUDY    64  56  75 N14       29.95R
$$

WIZ032>034-041-042-053>061-240600-
SOUTHWEST WISCONSIN

CITY           SKY/WX    TMP DP  RH WIND       PRES   REMARKS
LA CROSSE      CLEAR     66  61  84 NW8       29.97R
SPARTA         MOCLDY    62  58  85 N6        29.98R
VIROQUA        CLEAR     62  61  97 CALM      29.97S
BOSCOBEL       PTCLDY    66  61  84 CALM      29.95R
PRAIRIE DU CHI CLEAR     67  59  73 N6        29.95R
PLATTEVILLE    CLEAR     65  64  97 N7        29.94R
$$

WIZ056-057-062-063-064-067-068-240600-
SOUTH CENTRAL WISCONSIN

CITY           SKY/WX    TMP DP  RH WIND       PRES   REMARKS
REEDSBURG      CLOUDY    67  61  79 NE8       29.95R
BARABOO/DELLS  PTCLDY    65  56  72 NE8       29.96R
LONE ROCK      NOT AVBL
MINERAL POINT  CLEAR     66  63  88 N7        29.94R
MADISON        CLOUDY    68  60  75 NE15G22   29.93R
MIDDLETON      CLOUDY    70  64  81 NE10      29.93R
WATERTOWN      CLOUDY    66  62  86 N7        29.92R
MONROE         CLEAR     66  59  77 N7        29.92R
JANESVILLE     CLEAR     70  66  88 NE9       29.90R
$$

WIZ051-052-058>065-066-070>072-240600-
SOUTHEAST WISCONSIN

CITY           SKY/WX    TMP DP  RH WIND       PRES   REMARKS
MILWAUKEE      CLOUDY    68  62  81 N15G22    29.91R
WAUKESHA       CLOUDY    64  59  82 NE7       29.93R
MILWAUKEE/TIMM CLOUDY    64  57  77 NE9       29.91S
RACINE         MOCLDY    66  62  87 N13       29.93R
KENOSHA        CLOUDY    67  61  81 N8        29.92R
FOND DU LAC    CLOUDY    65  55  70 NE15G23   29.95R
SHEBOYGAN      CLOUDY    64  60  87 N12G17    29.93R
WEST BEND      MOCLDY    63  59  88 N6        29.93R
JUNEAU         CLEAR     63  58  85 N7        29.95R
$$

LSZ147-162-240600-
LAKE SUPERIOR

STATION/POSITION TIME  TEMP    WIND        PRES    WAVE
                       AIR SEA DIR/SP/G            HT/PER
                 (UTC) (F)     (DEG/KT/KT) (MB)    (FT/S)
W MID LAKE BUOY  0350   50 48  300/  6/  6 1017.1R   1/ 4
DEVILS ISLAND    0400   56     290/  3/  3 1017.3F
SAXON HARBOR     0440   58     200/  3/  3 1017.3R
$$

LMZ867-665-643>646-240600-
LAKE MICHIGAN

STATION/POSITION TIME  TEMP    WIND        PRES    WAVE
                       AIR SEA DIR/SP/G            HT/PER
                 (UTC) (F)     (DEG/KT/KT) (MB)    (FT/S)
CHAMBERS ISLAND  0440   64     360/ 17/ 24 1013.5S
S GREEN BAY BUOY 0430   65 72   20/ 17/ 21 1013.8R
N MID LAKE BUOY  0350   62 66   50/ 19/ 23 1013.6R   4/ 5
NORTHPORT PIER   0440   63      10/ 13/ 18 1014.2R
KEWAUNEE LAKESHO 0430   64     350/  6/ 11 1012.7R
SHEBOYGAN LAKESH 0400   65      10/ 21/ 23 1012.5R
PORT WASHINGTON  0430   66     360/  5/ 11 1013.9R
ATWATER BUOY     0309   68 69   20/ 19/ 25 1012.1R
MILWAUKEE LAKESH 0430   67      20/ 20/ 23   N/A
S MID LAKE BUOY  0350   68 70   10/ 21/ 27 1010.7R   3/ 4
KENOSHA   LAKESH 0400   69      10/ 19/ 24 1011.9
$$

TC  - TEMPERATURE IN CELSIUS
VSB - VISIBILITY IN STATUTE MILES
WCI - WIND CHILL INDEX
HX  - HEAT INDEX





USA.gov is the U.S. government's official web portal to all federal, state and local government web resources and services.